User: anonymous   Login
Location: Unspecified
(0.0000°N, 0.0000°E)
Time: 23:19:15
(UTC+00:00)
Language:

STARLINK-33947 - Orbit

View from above orbital plane
View from above orbital plane
View from above satellite
View from above satellite

Ground track
Ground track

The orbit is defined by the following mean orbital elements,

1 63787U          26145.55653815 +.00000000 +00000-0 +57454-3 0 00008
2 63787  43.0014 338.8063 0001192 270.5519  89.5196 15.27587712    01
Epoch (UTC): 25 May 2026 13:21:24
Eccentricity: 0.0001192
inclination: 43.0014°
perigee height: 482 km
apogee height: 484 km
right ascension of ascending node: 338.8063°
argument of perigee: 270.5519°
revolutions per day: 15.27587712
mean anomaly at epoch: 89.5196°

The dashed part of the orbit path shows where the satellite is in the earth's shadow,  

DLR